{"data":{"norad_id":66644,"epoch":"2026-05-24T23:40:34.731840Z","epoch_age_seconds":69461,"freshness":"FRESH","line1":"1 66644U 25271AD  26144.98651310  .00010715  00000+0  37330-3 0  9995","line2":"2 66644  53.1582 145.8508 0001309  82.2954 277.8195 15.30206756 29247","mean_motion":15.30206756,"eccentricity":0.0001309,"inclination_deg":53.1582,"raan_deg":145.8508,"arg_perigee_deg":82.2954,"mean_anomaly_deg":277.8195,"bstar":0.0003733,"rev_number":2924,"period_min":94.104930222906,"perigee_km":474.29779614996,"apogee_km":476.09199844068,"semimajor_km":6853.3318972953,"source":"CELESTRAK","updated_at":"2026-05-25T13:38:21.299939Z"}}